Baudette, MN

8:34 AM CDT on September 23, 2017 (GMT -0500)
Baudette International

Weather History for KBDE - September, 2012

Change the Weather History Date:

Monday, September 10, 2012

  Actual Average Record
Temperature  
Mean Temperature 65 °F -  
Max Temperature 81 °F 69 °F 88 °F (1952)
Min Temperature 50 °F 45 °F 29 °F (1955)
Growing Degree Days 15 (Base 50)    
Moisture  
Dew Point 49 °F    
Average Humidity 61    
Maximum Humidity 86    
Minimum Humidity 34    
Precipitation  
Precipitation 0.00 in - - ()
Sea Level Pressure  
Sea Level Pressure 29.76 in    
Wind  
Wind Speed 6 mph (South)    
Max Wind Speed 21 mph    
Max Gust Speed 29 mph    
Visibility 10 miles    
Events      
Averages and records for this station are not official NWS values.
T = Trace of Precipitation, MM = Missing Value Source: NWS Daily Summary

Daily Weather History Graph

Daily Weather History Graph

Search for Another Location

Airport or City:

Trip Planner

Search our weather history database for the weather conditions in past years. The results will help you decide how hot, cold, wet, or windy it might be!

Date:

Astronomy

Sep. 10, 2012 Rise Set
Actual Time 6:48 AM CDT 7:40 PM CDT
Civil Twilight 6:16 AM CDT 8:12 PM CDT
Nautical Twilight 5:38 AM CDT 8:50 PM CDT
Astronomical Twilight 4:58 AM CDT 9:30 PM CDT
Moon 12:49 AM CDT (9/10) 4:30 PM CDT (9/10)
Length of Visible Light 13h 55m
Length of Day
12h 51m
Waning Crescent, 30% of the Moon is Illuminated
Sep 10
Waning Crescent
Sep 15
New
Sep 22
First Quarter
Sep 29
Full
Oct 8
Last Quarter

Hourly Weather History & Observations

Time (CDT) Temp. Dew Point Humidity Pressure Visibility Wind Dir Wind Speed Gust Speed Precip Events Conditions
12:53 AM 51.1 °F 46.0 °F 83% 29.99 in 10.0 mi Calm Calm - N/A   Clear
1:53 AM 50.0 °F 46.0 °F 86% 29.97 in 10.0 mi SE 4.6 mph - N/A   Clear
2:53 AM 50.0 °F 46.0 °F 86% 29.94 in 10.0 mi Calm Calm - N/A   Clear
3:53 AM 50.0 °F 46.0 °F 86% 29.92 in 10.0 mi South 4.6 mph - N/A   Clear
4:53 AM 50.0 °F 46.0 °F 86% 29.90 in 10.0 mi South 5.8 mph - N/A   Clear
5:53 AM 50.0 °F 46.0 °F 86% 29.88 in 10.0 mi South 6.9 mph - N/A   Clear
6:53 AM 50.0 °F 46.0 °F 86% 29.86 in 10.0 mi Variable 4.6 mph - N/A   Clear
7:53 AM 52.0 °F 46.9 °F 83% 29.84 in 10.0 mi Variable 4.6 mph - N/A   Clear
8:53 AM 57.0 °F 48.0 °F 72% 29.81 in 10.0 mi South 9.2 mph - N/A   Clear
9:53 AM 62.1 °F 50.0 °F 65% 29.79 in 10.0 mi South 8.1 mph 16.1 mph N/A   Clear
10:53 AM 66.9 °F 50.0 °F 54% 29.76 in 10.0 mi South 10.4 mph 19.6 mph N/A   Clear
11:53 AM 72.0 °F 50.0 °F 46% 29.74 in 10.0 mi South 12.7 mph 21.9 mph N/A   Clear
12:53 PM 75.0 °F 48.9 °F 40% 29.72 in 10.0 mi South 15.0 mph 24.2 mph N/A   Clear
1:53 PM 79.0 °F 50.0 °F 36% 29.68 in 10.0 mi South 16.1 mph 24.2 mph N/A   Clear
2:53 PM 80.1 °F 48.9 °F 34% 29.66 in 10.0 mi South 20.7 mph 28.8 mph N/A   Clear
3:53 PM 80.1 °F 51.1 °F 36% 29.64 in 10.0 mi South 11.5 mph 24.2 mph N/A   Clear
4:53 PM 79.0 °F 50.0 °F 36% 29.64 in 10.0 mi South 17.3 mph 26.5 mph N/A   Clear
5:53 PM 78.1 °F 51.1 °F 39% 29.63 in 10.0 mi South 12.7 mph 19.6 mph N/A   Clear
6:53 PM 78.1 °F 51.1 °F 39% 29.63 in 10.0 mi South 9.2 mph 19.6 mph N/A   Clear
7:53 PM 73.0 °F 51.1 °F 46% 29.64 in 10.0 mi South 6.9 mph - N/A   Clear
8:53 PM 70.0 °F 52.0 °F 53% 29.64 in 10.0 mi South 5.8 mph - N/A   Clear
9:53 PM 66.9 °F 52.0 °F 59% 29.63 in 10.0 mi South 4.6 mph - N/A   Clear
10:53 PM 63.0 °F 51.1 °F 65% 29.64 in 10.0 mi Calm Calm - N/A   Clear
11:53 PM 61.0 °F 52.0 °F 72% 29.64 in 10.0 mi Variable 3.5 mph - N/A   Clear